EZY67UB EGPH-LFPG

Flight info

Callsign EZY67UB
Flight time N/A
Altitude 31000
Route GOSAM P600 FENIK L612 ELBUS DCT NAVSO DCT AKOMU DCT VAMEB UL612 EMKUK DCT SFD UM605 BIBAX
Aircraft A320/M-SDE3FGHIRWY/LB1

Departure

Time 2026-04-21 18:24
Airport Edinburgh Airport (EGPH)

Arrival

Time N/A
Airport Charles de Gaulle International Airport (LFPG)
Time Latitude Longitude Altitude Speed Heading
2026-04-21 17:37 55.94834 -3.35806 112 ft 0 kts 208°
2026-04-21 18:12 55.94840 -3.35800 112 ft 4 kts 208°
2026-04-21 18:13 55.94863 -3.35778 114 ft 3 kts 208°
2026-04-21 18:13 55.94883 -3.35751 112 ft 4 kts 244°
2026-04-21 18:13 55.94886 -3.35709 112 ft 4 kts 292°
2026-04-21 18:13 55.94881 -3.35690 114 ft 0 kts 298°
2026-04-21 18:16 55.94883 -3.35697 113 ft 3 kts 298°
2026-04-21 18:16 55.94905 -3.35770 113 ft 8 kts 298°
2026-04-21 18:16 55.94936 -3.35845 115 ft 7 kts 320°
2026-04-21 18:16 55.94981 -3.35859 114 ft 8 kts 11°
2026-04-21 18:17 55.95033 -3.35833 116 ft 7 kts 349°
2026-04-21 18:17 55.95061 -3.35888 115 ft 8 kts 300°
2026-04-21 18:17 55.95095 -3.36009 114 ft 12 kts 292°
2026-04-21 18:17 55.95121 -3.36150 115 ft 11 kts 288°
2026-04-21 18:18 55.95134 -3.36279 114 ft 10 kts 258°
2026-04-21 18:18 55.95095 -3.36397 114 ft 13 kts 238°
2026-04-21 18:18 55.95035 -3.36570 113 ft 20 kts 239°
2026-04-21 18:18 55.94953 -3.36815 114 ft 26 kts 239°
2026-04-21 18:19 55.94858 -3.37095 114 ft 25 kts 239°
2026-04-21 18:19 55.94770 -3.37354 112 ft 23 kts 239°
2026-04-21 18:19 55.94690 -3.37594 116 ft 22 kts 239°
2026-04-21 18:19 55.94614 -3.37817 116 ft 20 kts 238°
2026-04-21 18:20 55.94543 -3.38025 113 ft 19 kts 239°
2026-04-21 18:20 55.94477 -3.38219 113 ft 18 kts 239°
2026-04-21 18:20 55.94416 -3.38400 113 ft 16 kts 239°
2026-04-21 18:20 55.94364 -3.38553 115 ft 12 kts 239°
2026-04-21 18:21 55.94329 -3.38658 116 ft 8 kts 239°
2026-04-21 18:21 55.94301 -3.38742 114 ft 7 kts 238°
2026-04-21 18:21 55.94281 -3.38803 114 ft 5 kts 246°
2026-04-21 18:21 55.94285 -3.38846 114 ft 3 kts 300°
2026-04-21 18:22 55.94296 -3.38869 112 ft 2 kts 316°
2026-04-21 18:22 55.94323 -3.38907 115 ft 8 kts 325°
2026-04-21 18:22 55.94382 -3.38969 114 ft 9 kts 329°
2026-04-21 18:22 55.94413 -3.38976 114 ft 3 kts 38°
2026-04-21 18:23 55.94422 -3.38946 114 ft 0 kts 59°
2026-04-21 18:23 55.94422 -3.38945 114 ft 0 kts 59°
2026-04-21 18:23 55.94431 -3.38921 114 ft 20 kts 59°
2026-04-21 18:23 55.94639 -3.38312 113 ft 91 kts 58°
2026-04-21 18:24 55.95062 -3.37068 118 ft 142 kts 58°
2026-04-21 18:24 55.95602 -3.35499 669 ft 148 kts 58°
2026-04-21 18:24 55.96187 -3.33976 1362 ft 155 kts 50°
2026-04-21 18:24 55.97051 -3.32585 1662 ft 178 kts 43°
2026-04-21 18:25 55.98058 -3.31037 2020 ft 204 kts 44°
2026-04-21 18:25 55.99182 -3.29243 2531 ft 228 kts 43°
2026-04-21 18:25 56.00654 -3.27924 3270 ft 249 kts 15°
2026-04-21 18:25 56.02415 -3.28126 4173 ft 265 kts 343°
2026-04-21 18:26 56.03935 -3.30087 5098 ft 280 kts 309°
2026-04-21 18:26 56.04677 -3.33338 5782 ft 289 kts 276°
2026-04-21 18:26 56.04396 -3.36842 5977 ft 287 kts 243°
2026-04-21 18:26 56.03328 -3.39829 6284 ft 287 kts 230°
2026-04-21 18:27 56.02267 -3.42612 7186 ft 291 kts 239°
2026-04-21 18:27 56.01455 -3.46111 8085 ft 295 kts 249°
2026-04-21 18:27 56.00843 -3.49638 8953 ft 299 kts 253°
2026-04-21 18:27 56.00314 -3.53233 9853 ft 301 kts 254°
2026-04-21 18:28 55.99812 -3.56914 10652 ft 307 kts 255°
2026-04-21 18:28 55.99300 -3.60735 11017 ft 328 kts 255°
2026-04-21 18:28 55.98747 -3.64817 11463 ft 343 kts 255°
2026-04-21 18:28 55.98171 -3.68988 12186 ft 348 kts 255°
2026-04-21 18:29 55.97577 -3.73199 12978 ft 351 kts 254°
2026-04-21 18:29 55.96969 -3.77453 13726 ft 355 kts 254°
2026-04-21 18:29 55.96347 -3.81760 14431 ft 360 kts 254°
2026-04-21 18:29 55.95717 -3.86090 15094 ft 363 kts 254°
2026-04-21 18:30 55.95073 -3.90481 15424 ft 365 kts 254°
2026-04-21 18:30 55.94430 -3.94858 15515 ft 366 kts 254°
2026-04-21 18:30 55.93617 -3.99131 15528 ft 363 kts 242°
2026-04-21 18:30 55.92259 -4.02894 15520 ft 359 kts 226°
2026-04-21 18:31 55.90450 -4.05888 15521 ft 354 kts 212°
2026-04-21 18:31 55.88415 -4.08372 15518 ft 354 kts 211°
2026-04-21 18:31 55.86385 -4.10833 15517 ft 353 kts 208°
2026-04-21 18:31 55.84183 -4.12622 15518 ft 346 kts 191°
2026-04-21 18:32 55.81820 -4.13069 15516 ft 339 kts 173°
2026-04-21 18:32 55.79478 -4.12712 15515 ft 338 kts 171°
2026-04-21 18:32 55.77128 -4.12317 15515 ft 338 kts 171°
2026-04-21 18:32 55.74777 -4.11915 15515 ft 338 kts 171°
2026-04-21 18:33 55.72440 -4.11512 15514 ft 338 kts 171°
2026-04-21 18:33 55.70099 -4.11108 15512 ft 338 kts 171°
2026-04-21 18:33 55.67759 -4.10712 15507 ft 338 kts 171°
2026-04-21 18:33 55.65413 -4.10321 15506 ft 338 kts 171°
2026-04-21 18:34 55.63076 -4.09929 15506 ft 337 kts 171°
2026-04-21 18:34 55.60737 -4.09539 15499 ft 338 kts 171°
2026-04-21 18:34 55.58400 -4.09150 15497 ft 337 kts 171°
2026-04-21 18:34 55.56063 -4.08759 15495 ft 337 kts 171°
2026-04-21 18:35 55.54519 -4.08501 15494 ft 338 kts 171°
2026-04-21 18:35 55.51403 -4.07955 15495 ft 337 kts 168°
2026-04-21 18:35 55.49131 -4.06956 15487 ft 334 kts 157°
2026-04-21 18:35 55.47040 -4.05231 15488 ft 331 kts 148°
2026-04-21 18:36 55.45028 -4.03268 15500 ft 330 kts 148°
2026-04-21 18:36 55.43024 -4.01320 15487 ft 332 kts 149°
2026-04-21 18:36 55.40979 -3.99339 15942 ft 337 kts 149°
2026-04-21 18:36 55.38923 -3.97354 16721 ft 336 kts 148°
2026-04-21 18:37 55.36871 -3.95374 17444 ft 338 kts 149°
2026-04-21 18:37 55.34817 -3.93395 18033 ft 343 kts 149°
2026-04-21 18:37 55.32715 -3.91373 18713 ft 346 kts 149°
2026-04-21 18:37 55.30562 -3.89304 19174 ft 352 kts 150°
2026-04-21 18:38 55.28427 -3.87256 19700 ft 355 kts 149°
2026-04-21 18:38 55.26251 -3.85168 20284 ft 358 kts 149°
2026-04-21 18:38 55.24059 -3.83069 20853 ft 360 kts 149°
2026-04-21 18:38 55.21867 -3.80981 21511 ft 360 kts 150°
2026-04-21 18:39 55.19635 -3.78967 22080 ft 362 kts 152°
2026-04-21 18:39 55.17355 -3.77012 22550 ft 367 kts 153°
2026-04-21 18:39 55.15044 -3.75088 23051 ft 370 kts 153°
2026-04-21 18:39 55.12698 -3.73150 23471 ft 375 kts 153°
2026-04-21 18:40 55.10341 -3.71196 24023 ft 376 kts 153°
2026-04-21 18:40 55.07956 -3.69209 24354 ft 382 kts 154°
2026-04-21 18:40 55.06362 -3.67875 24585 ft 386 kts 154°
2026-04-21 18:40 55.03111 -3.65146 25096 ft 390 kts 154°
2026-04-21 18:41 55.00650 -3.63073 25435 ft 394 kts 154°
2026-04-21 18:41 54.98165 -3.60972 25763 ft 399 kts 154°